Location: Malvern Link
(52.1333°N, 2.3000°W)
Time: 10:40:03
(UTC+00:00)

MOZHAYETS 4 - Pass Details

Date: 02 July 2022
Orbit: 660 x 679 km, 98.2° (Epoch: 09 August)

Event Time Altitude Azimuth Distance (km) Brightness Sun altitude
Exits shadow 01:32:53 - 141° (SE) 2,991 10.8 -12.8°
Reaches altitude 10° 01:35:08 10° 135° (SE) 2,110 10.0 -12.7°
Maximum altitude 01:39:26 40° 66° (ENE) 993 9.0 -12.5°
Drops below altitude 10° 01:43:44 10° 357° (N) 2,113 11.4 -12.3°
Sets 01:46:04 0° 351° (N) 3,029 12.2 -12.1°
